Bettles Field, AK

4:52 AM AKDT on October 18, 2017 (GMT -0800)
Bettles | | Change Station

Elev 643 ft 66.92 °N, 151.53 °W | Updated 59 minutes ago

Snow
Snow
17 °F
Feels Like 10 °F
N
5
Wind Variable Wind from NNW

Today
High -- | Low -- °F
--% Chance of Precip.
Yesterday
High -- | Low -- °F
Precip. -- in
Pressure 29.40 in
Visibility 4.0 miles
Clouds Overcast 4100 ft
Windchill 10 °F
Dew Point 13 °F
Humidity 84%
Rainfall 0.00 in
Snow Depth Not available.
9:17 AM 6:22 PM
Waning Crescent, 2% visible
METAR PABT 181153Z 34004KT 4SM -SN BR OVC041 M08/M11 A2935 RMK AO2 SLP956 60001 70001 931002 4/003 T10831106 11083 21089 56005
Pressure 29.40 in
Visibility 4.0 miles
Clouds Overcast 4100 ft
Windchill 10 °F
Dew Point 13 °F
Humidity 84%
Rainfall 0.00 in
Snow Depth Not available.
9:17 AM 6:22 PM
Waning Crescent, 2% visible
METAR PABT 181153Z 34004KT 4SM -SN BR OVC041 M08/M11 A2935 RMK AO2 SLP956 60001 70001 931002 4/003 T10831106 11083 21089 56005

Get Severe Weather Alerts

Thanks for signing up!

Be on the lookout for a verification email in your inbox.

You'll start receiving the daily forecast at 6 AM.

×

10-Day Weather Forecast

Almanac

Astronomy

Oct. 18, 2017 Rise Set
Actual Time
Civil Twilight
Nautical Twilight
Astronomical Twilight
Moon
Length of Visible Light
Length of Day
Tomorrow will be .
, % of the Moon is Illuminated

Today's Extremes

State Highs State Lows

Community

WunderPhotos

Category 6

Welcome to Category 6. This is the collective home for Weather Underground's featured writeups by Dr. Jeff Masters (right), Bob Henson (left), Chris Burt, and other regular contributors.

Nearby

Air Quality

  Air Quality AQ Index Pollutant
Not available.

Snow Depth

Station Depth Elevation

Earthquake Activity

City Distance Mag. Time & Date
Minimum magnitude displayed is 2.5.

Coastal Water Temperatures

Place Temperature

Stations

Nearby Weather Stations

Station Location Temp. Windchill Dew Point Humidity Wind Precip. Elev Updated Type
                   

Watches & Warnings

There are currently no watches in effect.